Weather History for Cotulla, TX

Change the Weather History Date:

Thursday, October 4, 2012

  Actual Average Record
Temperature  
Mean Temperature 83 °F -  
Max Temperature 98 °F 84 °F 98 °F (2012)
Min Temperature 69 °F 64 °F 55 °F (2010)
Cooling Degree Days 18    
Growing Degree Days 33 (Base 50)    
Moisture  
Dew Point 66 °F    
Average Humidity 66    
Maximum Humidity 100    
Minimum Humidity 19    
Precipitation  
Precipitation 0.00 in - - ()
Sea Level Pressure  
Sea Level Pressure 29.98 in    
Wind  
Wind Speed 8 mph (SE)    
Max Wind Speed 20 mph    
Max Gust Speed 28 mph    
Visibility 9 miles    
Events      
Averages and records for this station are not official NWS values.
T = Trace of Precipitation, MM = Missing Value Source: NWS Daily Summary

Daily Weather History Graph

Daily Weather History Graph

Search for Another Location

Airport:

Trip Planner

Search our weather history database for the weather conditions in past years. The results will help you decide how hot, cold, wet, or windy it might be!

Date:

Astronomy

Oct. 04, 2012 Rise Set
Actual Time 7:31 AM CDT 7:18 PM CDT
Civil Twilight 7:08 AM CDT 7:42 PM CDT
Nautical Twilight 6:40 AM CDT 8:09 PM CDT
Astronomical Twilight 6:13 AM CDT 8:36 PM CDT
Moon 10:17 PM CDT (10/4) 11:28 AM CDT (10/4)
Length of Visible Light 12h 34m
Length of Day
11h 46m
Waning Gibbous, 82% of the Moon is Illuminated
Oct 4
Waning Gibbous
Oct 8
Last Quarter
Oct 15
New
Oct 21
First Quarter
Oct 29
Full

Hourly Weather History & Observations

Time (CDT) Temp. Heat Index Dew Point Humidity Pressure Visibility Wind Dir Wind Speed Gust Speed Precip Events Conditions
12:53 AM 73.9 °F - 70.0 °F 87% 29.96 in 10.0 mi ESE 6.9 mph - N/A   Clear
1:53 AM 73.0 °F - 70.0 °F 90% 29.96 in 10.0 mi ESE 6.9 mph - N/A   Clear
2:53 AM 72.0 °F - 70.0 °F 93% 29.96 in 9.0 mi ESE 6.9 mph - N/A   Clear
3:53 AM 71.1 °F - 69.1 °F 93% 29.95 in 7.0 mi East 5.8 mph - N/A   Clear
4:53 AM 71.1 °F - 69.1 °F 93% 29.94 in 6.0 mi ESE 6.9 mph - N/A   Clear
5:53 AM 70.0 °F - 69.1 °F 97% 29.95 in 5.0 mi ESE 6.9 mph - N/A   Clear
6:53 AM 69.1 °F - 69.1 °F 100% 29.96 in 5.0 mi SE 5.8 mph - N/A   Clear
7:53 AM 70.0 °F - 69.1 °F 97% 29.99 in 3.0 mi East 4.6 mph - N/A   Clear
8:53 AM 73.0 °F - 70.0 °F 90% 30.00 in 7.0 mi East 5.8 mph - N/A   Clear
9:53 AM 77.0 °F - 70.0 °F 79% 30.01 in 10.0 mi SE 10.4 mph - N/A   Clear
10:53 AM 81.0 °F 83.8 °F 68.0 °F 65% 30.02 in 10.0 mi SE 8.1 mph - N/A   Clear
11:53 AM 84.0 °F 86.5 °F 66.9 °F 56% 30.03 in 10.0 mi SE 6.9 mph - N/A   Clear
12:53 PM 89.1 °F 91.0 °F 64.9 °F 45% 30.01 in 10.0 mi SSE 8.1 mph - N/A   Clear
1:53 PM 91.9 °F 92.9 °F 63.0 °F 38% 29.99 in 10.0 mi SE 10.4 mph 16.1 mph N/A   Clear
2:53 PM 95.0 °F 95.2 °F 61.0 °F 32% 29.97 in 10.0 mi SSE 10.4 mph - N/A   Clear
3:53 PM 96.1 °F 95.2 °F 57.9 °F 28% 29.95 in 10.0 mi ESE 8.1 mph - N/A   Clear
4:53 PM 96.8 °F 95.1 °F 55.4 °F 25% 29.97 in 10.0 mi SE 10.4 mph - N/A   Clear
5:53 PM 97.0 °F - 48.9 °F 19% 29.94 in 10.0 mi SSE 11.5 mph 17.3 mph N/A   Clear
6:53 PM 93.0 °F 91.4 °F 55.9 °F 29% 29.95 in 10.0 mi SE 9.2 mph 18.4 mph N/A   Clear
7:53 PM 87.1 °F 86.1 °F 57.9 °F 37% 29.97 in 10.0 mi East 9.2 mph - N/A   Clear
8:53 PM 84.0 °F 89.0 °F 71.1 °F 65% 30.00 in 10.0 mi SE 19.6 mph 27.6 mph N/A   Clear
9:53 PM 81.0 °F 84.9 °F 71.1 °F 72% 30.02 in 10.0 mi SE 13.8 mph - N/A   Clear
10:53 PM 79.0 °F - 71.1 °F 77% 30.03 in 10.0 mi SE 9.2 mph - N/A   Clear
11:53 PM 77.0 °F - 70.0 °F 79% 30.02 in 10.0 mi SE 9.2 mph - N/A   Clear